Tracking 29606 objects as of 18-Sep-2024
HD Live streaming from Space Station
objects crossing your sky now

A-1 (ASTERIX)

Track A-1 (ASTERIX) now!
10-day predictions
A-1 (ASTERIX) is classified as:


NORAD ID: 1778
Int'l Code: 1965-096A
Perigee: 529.6 km
Apogee: 1,640.2 km
Inclination: 34.3 °
Period: 106.8 minutes
Semi major axis: 7455 km
RCS: 0.3783 m2 (medium)
Launch date: November 26, 1965
Source: France (FR)
Launch site: HAMMA GUIRA SPACE TRACK RANGE (HGSTR)
Your satellite tracking list
Your tracking list is empty




NASA's NSSDC Master Catalog

Two Line Element Set (TLE):
1 01778U 65096A   24261.84399723  .00001041  00000-0  28327-3 0  9990
2 01778  34.2560  76.7817 0744754  18.3043 344.2972 13.48505991878662
Source of the keplerian elements: AFSPC